Regional Weather Roundup
Issued by NWS

Home | Current Version | Previous Version | Graphics & Text | Print | Product List | Glossary On
Versions: 1 2 3 4 5 6 7 8 9 10 11 12 13 14 15 16 17 18 19 20 21 22 23 24 25 26 27 28 29 30 31 32 33 34 35 36 37 38 39 40 41 42 43 44 45 46 47 48 49 50
000
ASUS45 KBOI 230110
RWRID
WEATHER ROUNDUP FOR IDAHO
NATIONAL WEATHER SERVICE BOISE ID
700 PM MDT MON SEP 22 2014

NOTE: "FAIR" INDICATES FEW OR NO CLOUDS BELOW 12000 FEET
WITH NO SIGNIFICANT WEATHER AND/OR OBSTRUCTIONS TO VISIBILITY

IDZ012-014-230200-
SOUTHWEST IDAHO


CITY           SKY/WX    TMP DP  RH WIND       PRES   REMARKS
BOISE          PTCLDY    80  49  33 VRB3      29.97F
CALDWELL       PTCLDY    81  50  34 NE6       29.98S
MOUNTAIN HOME  MOCLDY    78  51  38 E5        29.99F
$$

IDZ016-017-230200-
SOUTHCENTRAL IDAHO


CITY           SKY/WX    TMP DP  RH WIND       PRES   REMARKS
BURLEY         CLEAR     70  50  49 S3        30.07S
JEROME         CLEAR     67  53  61 N5        30.07S
TWIN FALLS     CLEAR     72  51  47 NE5       30.06F
$$

IDZ019>023-230200-
SOUTHEAST IDAHO


CITY           SKY/WX    TMP DP  RH WIND       PRES   REMARKS
IDAHO FALLS    MOCLDY    70  48  45 SW14      30.10S
POCATELLO      MOCLDY    71  50  47 W9        30.10S
REXBURG        CLOUDY    59  55  87 E5        30.11S
$$

IDZ006-010-011-018-031-032-230200-
CENTRAL IDAHO MOUNTAINS


CITY           SKY/WX    TMP DP  RH WIND       PRES   REMARKS
MCCALL         MOCLDY    69  44  40 NE5       30.07F
HAILEY         PTCLDY    61  57  88 CALM      30.14F
STANLEY          N/A     63  46  54 CALM      30.18S
SALMON         MOCLDY    72  52  49 S8        29.99S
CHALLIS        MOCLDY    65  54  67 CALM      30.08F
$$

IDZ002-004-006-007-026-230200-
NORTHERN IDAHO


CITY           SKY/WX    TMP DP  RH WIND       PRES   REMARKS
LEWISTON       CLOUDY    79  50  36 CALM      29.88S
LOWELL           N/A     73  59  61 CALM      29.88S
COEUR D`ALENE  MOCLDY    79  46  31 SW6       29.89S
MULLAN PASS    CLOUDY    62  42  47 VRB6      30.12F
$$



USA.gov is the U.S. government's official web portal to all federal, state and local government web resources and services.